Location: *
(6.0000°S, 32.3997°W)
Time: 13:52:44
(UTC+00:00)

STARLINK-52 - Pass Details

Date: 01 April 2020
Orbit: 393 x 394 km, 53.0° (Epoch: 04 June)

Event Time Altitude Azimuth Distance (km) Brightness Sun altitude
Rises 21:34:47 0° 220° (SW) 2,288 7.3 -20.7°
Reaches altitude 10° 21:36:52 10° 224° (SW) 1,428 6.3 -21.3°
Enters shadow 21:39:47 54° 283° (WNW) 479 3.6 -22.0°
